This is the latest recevied weather packets stored in our database for station/object WD0REW. If no packets are shown the sender has not sent any weather packets the latest 10 day(s).
| Time | Temp. | Humidity | Pressure | Rain* | Wind** | Luminosity | Snow |
|---|---|---|---|---|---|---|---|
| 1777659721 | 17.78° C | 32% | 1020.3 hPa | 0 mm | - | 787 W/m² | - |
| 1777659418 | 17.22° C | 30% | 1020 hPa | 0 mm | - | 822 W/m² | - |
| 1777659115 | 17.22° C | 29% | 1020.1 hPa | 0 mm | - | 816 W/m² | - |
| 1777658814 | 17.78° C | 28% | 1020.3 hPa | 0 mm | - | 775 W/m² | - |
| 1777658509 | 17.78° C | 34% | 1019.9 hPa | 0 mm | - | 817 W/m² | - |
| 1777658206 | 17.78° C | 33% | 1019.9 hPa | 0 mm | - | 603 W/m² | - |
| 1777657903 | 16.67° C | 35% | 1020.1 hPa | 0 mm | - | 715 W/m² | - |
| 1777657600 | 16.67° C | 40% | 1020.3 hPa | 0 mm | - | 829 W/m² | - |
| 1777657297 | 17.22° C | 33% | 1020.4 hPa | 0 mm | - | 750 W/m² | - |
| 1777656995 | 17.22° C | 38% | 1020.1 hPa | 0 mm | - | 821 W/m² | - |
| 1777656692 | 17.22° C | 31% | 1020 hPa | 0 mm | - | 816 W/m² | - |
| 1777656387 | 17.78° C | 31% | 1020.3 hPa | 0 mm | - | 813 W/m² | - |
| 1777656082 | 17.22° C | 30% | 1020.1 hPa | 0 mm | - | 811 W/m² | - |
| 1777655779 | 17.22° C | 40% | 1020 hPa | 0 mm | - | 804 W/m² | - |
| 1777655476 | 16.67° C | 32% | 1020.3 hPa | 0 mm | - | 799 W/m² | - |
| 1777655173 | 17.22° C | 33% | 1019.8 hPa | 0 mm | - | 794 W/m² | - |
| 1777654869 | 17.22° C | 35% | 1020.3 hPa | 0 mm | - | 787 W/m² | - |
| 1777654567 | 16.11° C | 41% | 1020.3 hPa | 0 mm | - | 786 W/m² | - |
| 1777654264 | 16.11° C | 38% | 1020.3 hPa | 0 mm | - | 777 W/m² | - |
| 1777653962 | 16.11° C | 35% | 1020 hPa | 0 mm | - | 772 W/m² | - |
| 1777653658 | 16.67° C | 33% | 1020.1 hPa | 0 mm | - | 767 W/m² | - |
| 1777653355 | 17.22° C | 35% | 1020.4 hPa | 0 mm | - | 759 W/m² | - |
| 1777653052 | 16.67° C | 39% | 1020.1 hPa | 0 mm | - | 741 W/m² | - |
| 1777652748 | 16.67° C | 43% | 1020.4 hPa | 0 mm | - | 743 W/m² | - |
| 1777652445 | 16.67° C | 39% | 1020.3 hPa | 0 mm | - | 736 W/m² | - |
* Rain latest hour (hover to see other rain measurements)
** Current wind speed in m/s (hover to see current wind gust speed)